Information on these data can be found in provided Readme document
Contact Info: Zachary Fasnacht (zachary.fasnacht@ssaihq.com); Nickolay Krotkov (nickolay.a.krotkov@nasa.gov); Lok Lamsal (lok.lamsal@nasa.gov)

FillValue: -999.
ScaleFactor: 1e15
Units: molecules/cm^2

Date(yyyy-mm-dd),City,Country,LonCenter,LatCenter,BoundingCoordinates,Median,Q1,Q3,Mean,Baseline_Median,Baseline_Q1,Baseline_Q3,Baseline_Mean,NumGoodSamples,NumTotalSamples
2015-01-01,Boston,USA,-71.0833,42.3501,[-71.5833 41.8501 -70.5833 42.8501],5.203,3.677,6.585,5.153,4.143,2.835,6.046,4.497,191.0,603.0
2015-01-02,Boston,USA,-71.0833,42.3501,[-71.5833 41.8501 -70.5833 42.8501],5.152,3.676,6.649,5.176,4.198,2.769,6.277,4.572,170.0,590.0
2015-01-03,Boston,USA,-71.0833,42.3501,[-71.5833 41.8501 -70.5833 42.8501],5.449,4.083,6.807,5.527,4.408,3.014,6.306,4.788,210.0,593.0
2015-01-04,Boston,USA,-71.0833,42.3501,[-71.5833 41.8501 -70.5833 42.8501],5.672,4.249,6.881,5.696,4.368,2.944,6.094,4.71,173.0,595.0
2015-01-05,Boston,USA,-71.0833,42.3501,[-71.5833 41.8501 -70.5833 42.8501],5.672,4.249,6.881,5.696,4.372,2.878,6.092,4.669,173.0,593.0
2015-01-06,Boston,USA,-71.0833,42.3501,[-71.5833 41.8501 -70.5833 42.8501],5.672,4.265,6.881,5.694,4.069,2.779,5.669,4.487,160.0,595.0
2015-01-07,Boston,USA,-71.0833,42.3501,[-71.5833 41.8501 -70.5833 42.8501],5.776,4.473,6.881,5.778,3.942,2.742,5.563,4.37,132.0,600.0
2015-01-08,Boston,USA,-71.0833,42.3501,[-71.5833 41.8501 -70.5833 42.8501],6.051,4.473,6.883,5.818,3.827,2.677,5.339,4.238,127.0,593.0
2015-01-09,Boston,USA,-71.0833,42.3501,[-71.5833 41.8501 -70.5833 42.8501],5.752,4.265,6.807,5.697,3.817,2.646,5.465,4.398,93.0,553.0
2015-01-10,Boston,USA,-71.0833,42.3501,[-71.5833 41.8501 -70.5833 42.8501],5.111,3.635,6.585,5.151,3.887,2.72,5.728,4.542,128.0,552.0
2015-01-11,Boston,USA,-71.0833,42.3501,[-71.5833 41.8501 -70.5833 42.8501],5.111,3.635,6.585,5.151,4.115,2.809,5.849,4.584,128.0,548.0
2015-01-12,Boston,USA,-71.0833,42.3501,[-71.5833 41.8501 -70.5833 42.8501],5.111,3.673,6.585,5.205,4.104,2.875,5.814,4.575,137.0,549.0
2015-01-13,Boston,USA,-71.0833,42.3501,[-71.5833 41.8501 -70.5833 42.8501],5.43,3.779,6.699,5.386,4.109,2.88,5.836,4.607,109.0,556.0
2015-01-14,Boston,USA,-71.0833,42.3501,[-71.5833 41.8501 -70.5833 42.8501],5.43,3.779,6.699,5.381,4.041,2.966,5.853,4.649,110.0,557.0
2015-01-15,Boston,USA,-71.0833,42.3501,[-71.5833 41.8501 -70.5833 42.8501],5.487,3.779,6.807,5.527,4.534,3.222,6.429,5.106,128.0,558.0
2015-01-16,Boston,USA,-71.0833,42.3501,[-71.5833 41.8501 -70.5833 42.8501],5.342,4.275,6.605,5.538,4.515,3.316,6.339,5.073,114.0,566.0
2015-01-17,Boston,USA,-71.0833,42.3501,[-71.5833 41.8501 -70.5833 42.8501],5.342,4.275,6.605,5.538,4.392,3.134,6.215,4.928,114.0,565.0
2015-01-18,Boston,USA,-71.0833,42.3501,[-71.5833 41.8501 -70.5833 42.8501],4.82,3.665,5.384,4.799,4.126,2.853,5.704,4.674,74.0,556.0
2015-01-19,Boston,USA,-71.0833,42.3501,[-71.5833 41.8501 -70.5833 42.8501],4.82,3.665,5.384,4.799,4.153,2.89,5.754,4.711,74.0,558.0
2015-01-20,Boston,USA,-71.0833,42.3501,[-71.5833 41.8501 -70.5833 42.8501],4.82,3.665,5.384,4.799,4.411,3.032,5.944,4.911,74.0,561.0
2015-01-21,Boston,USA,-71.0833,42.3501,[-71.5833 41.8501 -70.5833 42.8501],4.82,3.61,5.384,4.768,4.671,3.188,6.184,5.114,76.0,560.0
2015-01-22,Boston,USA,-71.0833,42.3501,[-71.5833 41.8501 -70.5833 42.8501],4.82,3.61,5.384,4.768,4.737,3.204,6.27,5.206,76.0,562.0
2015-01-23,Boston,USA,-71.0833,42.3501,[-71.5833 41.8501 -70.5833 42.8501],4.82,3.61,5.384,4.768,5.003,3.516,6.633,5.493,76.0,570.0
2015-01-24,Boston,USA,-71.0833,42.3501,[-71.5833 41.8501 -70.5833 42.8501],4.695,3.472,5.384,4.712,4.918,3.427,6.376,5.239,87.0,604.0
2015-01-25,Boston,USA,-71.0833,42.3501,[-71.5833 41.8501 -70.5833 42.8501],4.906,4.107,5.536,4.937,5.066,3.663,6.708,5.446,60.0,606.0
2015-01-26,Boston,USA,-71.0833,42.3501,[-71.5833 41.8501 -70.5833 42.8501],4.906,4.107,5.536,4.937,4.933,3.508,6.572,5.31,60.0,607.0
2015-01-27,Boston,USA,-71.0833,42.3501,[-71.5833 41.8501 -70.5833 42.8501],4.82,3.43,5.384,4.736,5.113,3.523,6.528,5.325,51.0,603.0
2015-01-28,Boston,USA,-71.0833,42.3501,[-71.5833 41.8501 -70.5833 42.8501],4.82,3.43,5.384,4.736,4.844,3.266,6.489,5.183,51.0,601.0
2015-01-29,Boston,USA,-71.0833,42.3501,[-71.5833 41.8501 -70.5833 42.8501],4.906,3.43,5.384,4.738,4.693,3.182,6.258,5.025,50.0,606.0
2015-01-30,Boston,USA,-71.0833,42.3501,[-71.5833 41.8501 -70.5833 42.8501],4.82,3.319,5.342,4.246,4.477,3.075,5.815,4.797,34.0,605.0
2015-01-31,Boston,USA,-71.0833,42.3501,[-71.5833 41.8501 -70.5833 42.8501],2.006,1.005,3.451,2.543,4.564,3.147,5.974,4.926,23.0,605.0
2015-02-01,Boston,USA,-71.0833,42.3501,[-71.5833 41.8501 -70.5833 42.8501],2.006,1.005,3.451,2.543,4.676,3.465,6.186,5.162,23.0,613.0
2015-02-02,Boston,USA,-71.0833,42.3501,[-71.5833 41.8501 -70.5833 42.8501],2.006,1.005,3.451,2.543,4.72,3.611,6.161,5.052,23.0,608.0
2015-02-03,Boston,USA,-71.0833,42.3501,[-71.5833 41.8501 -70.5833 42.8501],2.006,1.005,3.451,2.543,4.594,3.192,6.121,4.877,23.0,596.0
2015-02-04,Boston,USA,-71.0833,42.3501,[-71.5833 41.8501 -70.5833 42.8501],2.006,1.005,3.451,2.6,4.625,3.18,5.977,4.801,24.0,597.0
2015-02-05,Boston,USA,-71.0833,42.3501,[-71.5833 41.8501 -70.5833 42.8501],2.006,1.005,3.451,2.57,4.534,3.168,5.952,4.829,22.0,600.0
2015-02-06,Boston,USA,-71.0833,42.3501,[-71.5833 41.8501 -70.5833 42.8501],2.709,1.968,3.34,2.716,4.48,3.137,5.82,4.685,53.0,598.0
2015-02-07,Boston,USA,-71.0833,42.3501,[-71.5833 41.8501 -70.5833 42.8501],2.709,1.968,3.34,2.716,4.171,2.544,5.852,4.425,53.0,597.0
2015-02-08,Boston,USA,-71.0833,42.3501,[-71.5833 41.8501 -70.5833 42.8501],2.621,1.965,3.34,2.606,4.184,2.646,5.933,4.484,42.0,605.0
2015-02-09,Boston,USA,-71.0833,42.3501,[-71.5833 41.8501 -70.5833 42.8501],3.146,2.362,3.347,2.854,3.969,2.6,5.862,4.334,43.0,600.0
2015-02-10,Boston,USA,-71.0833,42.3501,[-71.5833 41.8501 -70.5833 42.8501],3.146,2.362,3.347,2.854,3.676,2.25,5.439,4.096,43.0,559.0
2015-02-11,Boston,USA,-71.0833,42.3501,[-71.5833 41.8501 -70.5833 42.8501],3.146,2.537,3.417,2.955,3.671,2.236,6.115,4.402,47.0,559.0
2015-02-12,Boston,USA,-71.0833,42.3501,[-71.5833 41.8501 -70.5833 42.8501],3.146,2.537,3.417,2.955,4.005,2.777,6.188,4.714,47.0,555.0
2015-02-13,Boston,USA,-71.0833,42.3501,[-71.5833 41.8501 -70.5833 42.8501],3.208,2.621,3.89,3.295,3.93,2.465,6.396,4.722,71.0,554.0
2015-02-14,Boston,USA,-71.0833,42.3501,[-71.5833 41.8501 -70.5833 42.8501],3.202,2.621,3.779,3.257,4.06,2.445,6.396,4.861,69.0,557.0
2015-02-15,Boston,USA,-71.0833,42.3501,[-71.5833 41.8501 -70.5833 42.8501],3.34,2.709,4.242,3.874,4.497,2.572,6.157,4.952,76.0,558.0
2015-02-16,Boston,USA,-71.0833,42.3501,[-71.5833 41.8501 -70.5833 42.8501],3.34,2.709,4.242,3.874,4.506,2.889,6.344,5.121,76.0,557.0
2015-02-17,Boston,USA,-71.0833,42.3501,[-71.5833 41.8501 -70.5833 42.8501],3.34,2.709,4.248,3.907,4.5,2.887,6.37,5.121,78.0,564.0
2015-02-18,Boston,USA,-71.0833,42.3501,[-71.5833 41.8501 -70.5833 42.8501],3.384,2.881,4.444,4.424,4.571,2.558,6.429,5.179,86.0,564.0
2015-02-19,Boston,USA,-71.0833,42.3501,[-71.5833 41.8501 -70.5833 42.8501],3.384,2.881,4.444,4.425,4.337,2.536,6.524,5.083,85.0,555.0
2015-02-20,Boston,USA,-71.0833,42.3501,[-71.5833 41.8501 -70.5833 42.8501],3.604,3.095,5.52,4.819,4.605,2.844,6.79,5.29,112.0,558.0
2015-02-21,Boston,USA,-71.0833,42.3501,[-71.5833 41.8501 -70.5833 42.8501],4.293,3.458,6.285,5.707,4.929,2.931,7.277,5.602,81.0,560.0
2015-02-22,Boston,USA,-71.0833,42.3501,[-71.5833 41.8501 -70.5833 42.8501],4.293,3.458,6.285,5.707,5.394,3.119,7.597,6.07,81.0,559.0
2015-02-23,Boston,USA,-71.0833,42.3501,[-71.5833 41.8501 -70.5833 42.8501],4.293,3.458,6.285,5.707,5.398,2.989,7.645,6.027,81.0,559.0
2015-02-24,Boston,USA,-71.0833,42.3501,[-71.5833 41.8501 -70.5833 42.8501],4.337,3.559,6.285,5.853,5.405,3.032,7.641,6.027,72.0,563.0
2015-02-25,Boston,USA,-71.0833,42.3501,[-71.5833 41.8501 -70.5833 42.8501],4.337,3.559,6.285,5.853,5.265,3.165,7.538,6.001,72.0,599.0
2015-02-26,Boston,USA,-71.0833,42.3501,[-71.5833 41.8501 -70.5833 42.8501],4.337,3.506,6.449,5.952,5.042,3.271,7.297,5.946,68.0,600.0
2015-02-27,Boston,USA,-71.0833,42.3501,[-71.5833 41.8501 -70.5833 42.8501],4.879,3.713,6.579,6.114,5.013,3.247,7.295,5.865,91.0,601.0
2015-02-28,Boston,USA,-71.0833,42.3501,[-71.5833 41.8501 -70.5833 42.8501],5.646,4.25,9.437,7.131,5.433,3.467,7.524,6.026,67.0,597.0
2015-03-01,Boston,USA,-71.0833,42.3501,[-71.5833 41.8501 -70.5833 42.8501],5.646,4.25,9.437,7.131,5.622,3.818,7.592,6.128,67.0,599.0
2015-03-02,Boston,USA,-71.0833,42.3501,[-71.5833 41.8501 -70.5833 42.8501],5.577,4.083,7.33,6.776,5.185,3.529,7.173,5.84,60.0,606.0
2015-03-03,Boston,USA,-71.0833,42.3501,[-71.5833 41.8501 -70.5833 42.8501],5.577,4.083,7.33,6.776,5.109,3.526,7.111,5.653,60.0,604.0
2015-03-04,Boston,USA,-71.0833,42.3501,[-71.5833 41.8501 -70.5833 42.8501],5.622,4.25,8.395,7.033,5.04,3.346,7.171,5.553,68.0,604.0
2015-03-05,Boston,USA,-71.0833,42.3501,[-71.5833 41.8501 -70.5833 42.8501],4.25,2.996,6.285,5.089,4.746,3.198,6.888,5.35,71.0,611.0
2015-03-06,Boston,USA,-71.0833,42.3501,[-71.5833 41.8501 -70.5833 42.8501],4.25,2.996,6.285,5.164,4.642,2.864,6.863,5.264,77.0,605.0
2015-03-07,Boston,USA,-71.0833,42.3501,[-71.5833 41.8501 -70.5833 42.8501],3.385,1.59,5.807,4.764,4.414,2.587,6.543,5.01,50.0,592.0
2015-03-08,Boston,USA,-71.0833,42.3501,[-71.5833 41.8501 -70.5833 42.8501],3.385,1.59,5.807,4.764,4.117,2.502,5.942,4.727,50.0,594.0
2015-03-09,Boston,USA,-71.0833,42.3501,[-71.5833 41.8501 -70.5833 42.8501],3.385,1.59,5.807,4.764,3.995,2.322,5.79,4.365,50.0,598.0
2015-03-10,Boston,USA,-71.0833,42.3501,[-71.5833 41.8501 -70.5833 42.8501],3.385,1.59,5.807,4.764,3.965,2.469,5.434,4.258,50.0,596.0
2015-03-11,Boston,USA,-71.0833,42.3501,[-71.5833 41.8501 -70.5833 42.8501],3.385,1.59,5.807,4.764,3.97,2.548,5.383,4.27,50.0,597.0
2015-03-12,Boston,USA,-71.0833,42.3501,[-71.5833 41.8501 -70.5833 42.8501],3.197,2.12,4.879,4.212,4.166,2.79,5.704,4.565,62.0,602.0
2015-03-13,Boston,USA,-71.0833,42.3501,[-71.5833 41.8501 -70.5833 42.8501],3.197,2.12,4.879,4.212,3.957,2.733,5.581,4.464,62.0,597.0
2015-03-14,Boston,USA,-71.0833,42.3501,[-71.5833 41.8501 -70.5833 42.8501],2.996,1.59,3.385,3.406,3.726,2.634,5.297,4.313,39.0,556.0
2015-03-15,Boston,USA,-71.0833,42.3501,[-71.5833 41.8501 -70.5833 42.8501],2.902,1.923,3.317,3.212,3.557,2.525,5.095,4.159,72.0,557.0
2015-03-16,Boston,USA,-71.0833,42.3501,[-71.5833 41.8501 -70.5833 42.8501],2.902,1.923,3.317,3.212,3.622,2.523,4.986,4.07,72.0,551.0
2015-03-17,Boston,USA,-71.0833,42.3501,[-71.5833 41.8501 -70.5833 42.8501],3.197,2.346,6.716,4.862,3.743,2.618,5.645,4.398,103.0,549.0
2015-03-18,Boston,USA,-71.0833,42.3501,[-71.5833 41.8501 -70.5833 42.8501],3.197,2.346,6.716,4.862,3.743,2.618,5.645,4.398,103.0,553.0
2015-03-19,Boston,USA,-71.0833,42.3501,[-71.5833 41.8501 -70.5833 42.8501],3.197,2.12,5.598,4.665,3.699,2.568,5.235,4.291,93.0,552.0
2015-03-20,Boston,USA,-71.0833,42.3501,[-71.5833 41.8501 -70.5833 42.8501],3.317,2.548,7.62,5.376,3.813,2.702,5.626,4.412,82.0,552.0
2015-03-21,Boston,USA,-71.0833,42.3501,[-71.5833 41.8501 -70.5833 42.8501],3.289,2.545,7.62,5.311,3.986,2.866,6.026,4.842,76.0,560.0
2015-03-22,Boston,USA,-71.0833,42.3501,[-71.5833 41.8501 -70.5833 42.8501],3.429,2.548,7.427,5.219,4.009,2.878,6.058,4.855,99.0,559.0
2015-03-23,Boston,USA,-71.0833,42.3501,[-71.5833 41.8501 -70.5833 42.8501],3.429,2.548,7.427,5.219,3.978,2.858,5.95,4.792,99.0,552.0
2015-03-24,Boston,USA,-71.0833,42.3501,[-71.5833 41.8501 -70.5833 42.8501],4.419,2.852,7.62,5.637,4.308,2.868,6.172,4.88,121.0,552.0
2015-03-25,Boston,USA,-71.0833,42.3501,[-71.5833 41.8501 -70.5833 42.8501],4.419,2.852,7.62,5.637,4.129,2.744,6.316,4.869,121.0,553.0
2015-03-26,Boston,USA,-71.0833,42.3501,[-71.5833 41.8501 -70.5833 42.8501],6.581,3.053,8.488,6.272,4.834,2.981,6.28,4.997,150.0,553.0
2015-03-27,Boston,USA,-71.0833,42.3501,[-71.5833 41.8501 -70.5833 42.8501],7.132,3.501,9.164,6.821,4.772,2.94,6.244,4.899,138.0,553.0
2015-03-28,Boston,USA,-71.0833,42.3501,[-71.5833 41.8501 -70.5833 42.8501],6.745,3.241,9.061,6.469,4.712,2.502,6.528,4.809,145.0,556.0
2015-03-29,Boston,USA,-71.0833,42.3501,[-71.5833 41.8501 -70.5833 42.8501],6.745,3.241,9.061,6.469,4.478,2.629,6.389,4.769,145.0,592.0
2015-03-30,Boston,USA,-71.0833,42.3501,[-71.5833 41.8501 -70.5833 42.8501],7.331,4.876,9.624,7.279,4.418,2.976,6.289,4.817,112.0,591.0
2015-03-31,Boston,USA,-71.0833,42.3501,[-71.5833 41.8501 -70.5833 42.8501],7.331,4.876,9.624,7.279,4.483,2.937,6.209,4.861,112.0,591.0
2015-04-01,Boston,USA,-71.0833,42.3501,[-71.5833 41.8501 -70.5833 42.8501],7.132,4.114,8.488,6.677,4.218,2.59,5.431,4.531,81.0,586.0
2015-04-02,Boston,USA,-71.0833,42.3501,[-71.5833 41.8501 -70.5833 42.8501],7.132,4.114,8.488,6.677,4.096,2.516,5.23,4.398,81.0,586.0
2015-04-03,Boston,USA,-71.0833,42.3501,[-71.5833 41.8501 -70.5833 42.8501],7.132,4.114,8.488,6.677,4.131,2.725,5.393,4.538,81.0,591.0
2015-04-04,Boston,USA,-71.0833,42.3501,[-71.5833 41.8501 -70.5833 42.8501],4.924,2.477,7.518,5.36,3.979,2.577,5.447,4.451,114.0,589.0
2015-04-05,Boston,USA,-71.0833,42.3501,[-71.5833 41.8501 -70.5833 42.8501],4.117,2.452,7.483,5.088,3.738,2.493,5.383,4.063,140.0,591.0
2015-04-06,Boston,USA,-71.0833,42.3501,[-71.5833 41.8501 -70.5833 42.8501],4.499,2.38,7.164,4.893,3.875,2.482,5.393,4.024,128.0,598.0
2015-04-07,Boston,USA,-71.0833,42.3501,[-71.5833 41.8501 -70.5833 42.8501],4.2,2.38,7.162,4.77,3.831,2.499,5.429,4.026,134.0,591.0
2015-04-08,Boston,USA,-71.0833,42.3501,[-71.5833 41.8501 -70.5833 42.8501],3.75,1.839,6.581,4.29,3.618,2.347,5.193,3.858,112.0,584.0
2015-04-09,Boston,USA,-71.0833,42.3501,[-71.5833 41.8501 -70.5833 42.8501],3.719,2.014,6.046,4.283,3.48,1.968,5.043,3.701,149.0,587.0
2015-04-10,Boston,USA,-71.0833,42.3501,[-71.5833 41.8501 -70.5833 42.8501],3.115,1.741,4.2,3.126,3.226,1.83,4.514,3.289,120.0,589.0
2015-04-11,Boston,USA,-71.0833,42.3501,[-71.5833 41.8501 -70.5833 42.8501],3.115,1.874,4.2,3.257,3.128,1.757,4.408,3.201,142.0,591.0
2015-04-12,Boston,USA,-71.0833,42.3501,[-71.5833 41.8501 -70.5833 42.8501],3.169,1.874,4.294,3.319,3.187,1.834,4.419,3.23,135.0,593.0
2015-04-13,Boston,USA,-71.0833,42.3501,[-71.5833 41.8501 -70.5833 42.8501],3.169,1.874,4.294,3.319,3.123,1.78,4.427,3.193,135.0,595.0
2015-04-14,Boston,USA,-71.0833,42.3501,[-71.5833 41.8501 -70.5833 42.8501],3.169,1.874,4.406,3.341,3.049,1.666,4.312,3.115,151.0,592.0
2015-04-15,Boston,USA,-71.0833,42.3501,[-71.5833 41.8501 -70.5833 42.8501],3.169,1.874,4.406,3.341,3.009,1.657,4.233,3.067,151.0,554.0
2015-04-16,Boston,USA,-71.0833,42.3501,[-71.5833 41.8501 -70.5833 42.8501],3.169,1.874,4.406,3.341,2.986,1.636,4.257,3.055,151.0,555.0
2015-04-17,Boston,USA,-71.0833,42.3501,[-71.5833 41.8501 -70.5833 42.8501],3.169,1.874,4.406,3.341,2.873,1.494,4.245,2.924,151.0,552.0
2015-04-18,Boston,USA,-71.0833,42.3501,[-71.5833 41.8501 -70.5833 42.8501],3.169,1.984,4.559,3.359,2.831,1.489,4.153,2.889,176.0,554.0
2015-04-19,Boston,USA,-71.0833,42.3501,[-71.5833 41.8501 -70.5833 42.8501],3.532,2.08,4.737,3.633,2.812,1.616,4.171,2.965,143.0,561.0
2015-04-20,Boston,USA,-71.0833,42.3501,[-71.5833 41.8501 -70.5833 42.8501],3.6,2.334,4.945,3.777,2.813,1.655,4.2,2.98,117.0,561.0
2015-04-21,Boston,USA,-71.0833,42.3501,[-71.5833 41.8501 -70.5833 42.8501],3.489,2.461,4.581,3.697,3.041,1.904,4.31,3.161,131.0,560.0
2015-04-22,Boston,USA,-71.0833,42.3501,[-71.5833 41.8501 -70.5833 42.8501],3.531,2.492,4.591,3.842,2.946,1.708,4.312,3.127,125.0,569.0
2015-04-23,Boston,USA,-71.0833,42.3501,[-71.5833 41.8501 -70.5833 42.8501],3.489,2.461,4.591,3.733,3.049,1.741,4.5,3.22,135.0,564.0
2015-04-24,Boston,USA,-71.0833,42.3501,[-71.5833 41.8501 -70.5833 42.8501],2.967,2.08,4.552,3.341,3.13,1.729,4.651,3.28,104.0,553.0
2015-04-25,Boston,USA,-71.0833,42.3501,[-71.5833 41.8501 -70.5833 42.8501],2.477,1.504,3.649,2.813,3.152,1.753,4.51,3.271,141.0,576.0
2015-04-26,Boston,USA,-71.0833,42.3501,[-71.5833 41.8501 -70.5833 42.8501],2.164,1.282,3.685,2.494,3.198,1.908,4.61,3.31,119.0,618.0
2015-04-27,Boston,USA,-71.0833,42.3501,[-71.5833 41.8501 -70.5833 42.8501],2.583,1.629,3.802,2.774,3.288,2.062,4.666,3.433,156.0,618.0
2015-04-28,Boston,USA,-71.0833,42.3501,[-71.5833 41.8501 -70.5833 42.8501],2.583,1.526,3.795,2.753,3.197,2.045,4.548,3.382,163.0,623.0
2015-04-29,Boston,USA,-71.0833,42.3501,[-71.5833 41.8501 -70.5833 42.8501],2.501,1.504,3.776,2.675,3.39,2.059,4.624,3.437,168.0,630.0
2015-04-30,Boston,USA,-71.0833,42.3501,[-71.5833 41.8501 -70.5833 42.8501],2.49,1.504,3.745,2.655,3.371,2.088,4.71,3.451,196.0,666.0
2015-05-01,Boston,USA,-71.0833,42.3501,[-71.5833 41.8501 -70.5833 42.8501],2.452,1.526,3.637,2.636,3.344,2.232,4.603,3.442,225.0,667.0
2015-05-02,Boston,USA,-71.0833,42.3501,[-71.5833 41.8501 -70.5833 42.8501],2.46,1.586,3.563,2.645,3.457,2.398,4.745,3.655,255.0,669.0
2015-05-03,Boston,USA,-71.0833,42.3501,[-71.5833 41.8501 -70.5833 42.8501],2.403,1.526,3.373,2.542,3.434,2.386,4.73,3.65,230.0,662.0
2015-05-04,Boston,USA,-71.0833,42.3501,[-71.5833 41.8501 -70.5833 42.8501],2.449,1.629,3.552,2.604,3.261,2.314,4.649,3.439,250.0,663.0
2015-05-05,Boston,USA,-71.0833,42.3501,[-71.5833 41.8501 -70.5833 42.8501],2.449,1.629,3.552,2.604,3.18,2.299,4.612,3.405,250.0,667.0
2015-05-06,Boston,USA,-71.0833,42.3501,[-71.5833 41.8501 -70.5833 42.8501],2.283,1.526,3.236,2.45,2.911,2.142,4.197,3.121,247.0,668.0
2015-05-07,Boston,USA,-71.0833,42.3501,[-71.5833 41.8501 -70.5833 42.8501],2.293,1.531,3.236,2.466,2.789,1.982,3.985,3.002,277.0,667.0
2015-05-08,Boston,USA,-71.0833,42.3501,[-71.5833 41.8501 -70.5833 42.8501],2.293,1.586,3.236,2.483,2.684,1.94,3.774,2.876,267.0,676.0
2015-05-09,Boston,USA,-71.0833,42.3501,[-71.5833 41.8501 -70.5833 42.8501],2.293,1.641,3.251,2.503,2.676,1.796,3.627,2.82,261.0,675.0
2015-05-10,Boston,USA,-71.0833,42.3501,[-71.5833 41.8501 -70.5833 42.8501],2.41,1.768,3.533,2.621,2.717,1.841,3.721,2.863,242.0,640.0
2015-05-11,Boston,USA,-71.0833,42.3501,[-71.5833 41.8501 -70.5833 42.8501],2.571,1.88,3.553,2.74,2.533,1.725,3.62,2.768,282.0,603.0
2015-05-12,Boston,USA,-71.0833,42.3501,[-71.5833 41.8501 -70.5833 42.8501],2.369,1.768,3.318,2.604,2.372,1.642,3.413,2.584,245.0,604.0
2015-05-13,Boston,USA,-71.0833,42.3501,[-71.5833 41.8501 -70.5833 42.8501],2.238,1.706,3.236,2.506,2.443,1.497,3.5,2.573,256.0,603.0
2015-05-14,Boston,USA,-71.0833,42.3501,[-71.5833 41.8501 -70.5833 42.8501],2.238,1.744,3.202,2.481,2.246,1.461,3.306,2.485,238.0,603.0
2015-05-15,Boston,USA,-71.0833,42.3501,[-71.5833 41.8501 -70.5833 42.8501],2.39,1.789,3.111,2.553,2.034,1.323,3.105,2.326,229.0,610.0
2015-05-16,Boston,USA,-71.0833,42.3501,[-71.5833 41.8501 -70.5833 42.8501],2.325,1.768,3.111,2.506,1.952,1.323,2.903,2.219,228.0,604.0
2015-05-17,Boston,USA,-71.0833,42.3501,[-71.5833 41.8501 -70.5833 42.8501],2.238,1.768,3.111,2.478,1.935,1.327,2.84,2.158,198.0,563.0
2015-05-18,Boston,USA,-71.0833,42.3501,[-71.5833 41.8501 -70.5833 42.8501],2.238,1.744,3.111,2.459,1.938,1.304,2.844,2.128,200.0,567.0
2015-05-19,Boston,USA,-71.0833,42.3501,[-71.5833 41.8501 -70.5833 42.8501],2.217,1.665,3.081,2.374,2.074,1.385,2.968,2.209,180.0,561.0
2015-05-20,Boston,USA,-71.0833,42.3501,[-71.5833 41.8501 -70.5833 42.8501],2.145,1.347,3.039,2.299,1.971,1.241,2.938,2.15,215.0,562.0
2015-05-21,Boston,USA,-71.0833,42.3501,[-71.5833 41.8501 -70.5833 42.8501],2.39,1.506,3.202,2.432,2.026,1.272,2.986,2.177,193.0,570.0
2015-05-22,Boston,USA,-71.0833,42.3501,[-71.5833 41.8501 -70.5833 42.8501],2.38,1.392,3.081,2.369,2.043,1.262,2.984,2.191,192.0,571.0
2015-05-23,Boston,USA,-71.0833,42.3501,[-71.5833 41.8501 -70.5833 42.8501],2.299,1.332,3.078,2.342,2.025,1.263,2.977,2.183,222.0,569.0
2015-05-24,Boston,USA,-71.0833,42.3501,[-71.5833 41.8501 -70.5833 42.8501],2.299,1.332,3.078,2.342,2.059,1.25,2.942,2.166,222.0,575.0
2015-05-25,Boston,USA,-71.0833,42.3501,[-71.5833 41.8501 -70.5833 42.8501],2.325,1.347,3.078,2.355,2.057,1.233,2.928,2.166,204.0,576.0
2015-05-26,Boston,USA,-71.0833,42.3501,[-71.5833 41.8501 -70.5833 42.8501],2.123,1.21,2.901,2.097,2.099,1.165,2.935,2.143,164.0,563.0
2015-05-27,Boston,USA,-71.0833,42.3501,[-71.5833 41.8501 -70.5833 42.8501],2.217,1.282,2.901,2.18,2.102,1.175,2.909,2.134,183.0,591.0
2015-05-28,Boston,USA,-71.0833,42.3501,[-71.5833 41.8501 -70.5833 42.8501],2.391,1.341,2.93,2.278,2.025,1.209,2.788,2.093,165.0,635.0
2015-05-29,Boston,USA,-71.0833,42.3501,[-71.5833 41.8501 -70.5833 42.8501],2.403,1.308,2.995,2.341,2.103,1.159,2.833,2.129,190.0,632.0
2015-05-30,Boston,USA,-71.0833,42.3501,[-71.5833 41.8501 -70.5833 42.8501],2.253,1.21,2.901,2.211,2.092,1.333,2.785,2.179,176.0,632.0
2015-05-31,Boston,USA,-71.0833,42.3501,[-71.5833 41.8501 -70.5833 42.8501],2.224,1.308,2.93,2.223,2.078,1.316,2.812,2.149,170.0,637.0
2015-06-01,Boston,USA,-71.0833,42.3501,[-71.5833 41.8501 -70.5833 42.8501],2.224,1.308,2.93,2.219,2.042,1.297,2.751,2.097,171.0,672.0
2015-06-02,Boston,USA,-71.0833,42.3501,[-71.5833 41.8501 -70.5833 42.8501],2.224,1.308,2.938,2.236,2.066,1.331,2.809,2.139,169.0,674.0
2015-06-03,Boston,USA,-71.0833,42.3501,[-71.5833 41.8501 -70.5833 42.8501],2.208,1.308,2.923,2.195,2.018,1.282,2.823,2.092,202.0,675.0
2015-06-04,Boston,USA,-71.0833,42.3501,[-71.5833 41.8501 -70.5833 42.8501],2.281,1.339,2.904,2.247,2.111,1.334,2.995,2.196,167.0,669.0
2015-06-05,Boston,USA,-71.0833,42.3501,[-71.5833 41.8501 -70.5833 42.8501],2.362,1.441,2.959,2.358,2.162,1.385,2.991,2.245,203.0,667.0
2015-06-06,Boston,USA,-71.0833,42.3501,[-71.5833 41.8501 -70.5833 42.8501],2.362,1.48,2.976,2.391,2.15,1.392,3.008,2.251,174.0,672.0
2015-06-07,Boston,USA,-71.0833,42.3501,[-71.5833 41.8501 -70.5833 42.8501],2.07,0.725,2.835,1.925,2.109,1.186,3.032,2.152,175.0,672.0
2015-06-08,Boston,USA,-71.0833,42.3501,[-71.5833 41.8501 -70.5833 42.8501],2.07,0.725,2.835,1.925,2.04,1.207,2.949,2.127,175.0,672.0
2015-06-09,Boston,USA,-71.0833,42.3501,[-71.5833 41.8501 -70.5833 42.8501],2.07,0.725,2.835,1.925,2.043,1.177,2.948,2.116,175.0,678.0
2015-06-10,Boston,USA,-71.0833,42.3501,[-71.5833 41.8501 -70.5833 42.8501],2.0,0.695,2.827,1.879,2.073,1.212,3.024,2.165,198.0,676.0
2015-06-11,Boston,USA,-71.0833,42.3501,[-71.5833 41.8501 -70.5833 42.8501],1.876,0.668,2.848,1.885,2.056,1.23,3.055,2.178,196.0,643.0
2015-06-12,Boston,USA,-71.0833,42.3501,[-71.5833 41.8501 -70.5833 42.8501],1.959,0.81,2.848,1.908,2.026,1.237,2.982,2.155,223.0,603.0
2015-06-13,Boston,USA,-71.0833,42.3501,[-71.5833 41.8501 -70.5833 42.8501],1.824,0.738,2.641,1.793,1.98,1.214,2.93,2.129,195.0,605.0
2015-06-14,Boston,USA,-71.0833,42.3501,[-71.5833 41.8501 -70.5833 42.8501],1.824,0.738,2.641,1.803,2.108,1.298,3.058,2.233,190.0,606.0
2015-06-15,Boston,USA,-71.0833,42.3501,[-71.5833 41.8501 -70.5833 42.8501],1.685,0.695,2.607,1.747,2.17,1.254,3.094,2.238,178.0,607.0
2015-06-16,Boston,USA,-71.0833,42.3501,[-71.5833 41.8501 -70.5833 42.8501],1.824,0.695,2.641,1.829,2.249,1.284,3.141,2.314,183.0,614.0
2015-06-17,Boston,USA,-71.0833,42.3501,[-71.5833 41.8501 -70.5833 42.8501],1.824,0.788,2.615,1.843,2.174,1.295,3.044,2.255,211.0,605.0
2015-06-18,Boston,USA,-71.0833,42.3501,[-71.5833 41.8501 -70.5833 42.8501],1.824,0.617,2.641,1.827,2.174,1.26,3.092,2.263,178.0,564.0
2015-06-19,Boston,USA,-71.0833,42.3501,[-71.5833 41.8501 -70.5833 42.8501],1.827,0.695,2.686,1.864,2.045,1.209,3.025,2.198,203.0,566.0
2015-06-20,Boston,USA,-71.0833,42.3501,[-71.5833 41.8501 -70.5833 42.8501],1.323,0.35,2.337,1.569,1.939,1.159,2.995,2.167,167.0,562.0
2015-06-21,Boston,USA,-71.0833,42.3501,[-71.5833 41.8501 -70.5833 42.8501],1.323,0.35,2.337,1.569,2.037,1.188,3.038,2.214,167.0,564.0
2015-06-22,Boston,USA,-71.0833,42.3501,[-71.5833 41.8501 -70.5833 42.8501],2.012,1.088,3.104,2.276,2.197,1.307,3.158,2.321,136.0,570.0
2015-06-23,Boston,USA,-71.0833,42.3501,[-71.5833 41.8501 -70.5833 42.8501],2.006,1.11,3.019,2.199,2.259,1.256,3.195,2.32,157.0,571.0
2015-06-24,Boston,USA,-71.0833,42.3501,[-71.5833 41.8501 -70.5833 42.8501],2.006,1.159,3.035,2.195,2.291,1.348,3.166,2.344,174.0,573.0
2015-06-25,Boston,USA,-71.0833,42.3501,[-71.5833 41.8501 -70.5833 42.8501],2.153,1.536,2.832,2.272,2.203,1.335,3.053,2.264,175.0,580.0